Regional Weather Roundup
Issued by NWS Sioux Falls, SD

Home | Current Version | Previous Version | Graphics & Text | Print | Product List | Glossary On
Versions: 1 2 3 4 5 6 7 8 9 10 11 12 13 14 15 16 17 18 19 20 21 22 23 24 25 26 27 28 29 30 31 32 33 34 35 36 37 38 39 40 41 42 43 44 45 46 47 48 49 50
000
ASUS43 KFSD 241202
RWRFSD

WEATHER ROUNDUP FOR SE SOUTH DAKOTA/SW MINNESOTA/NW IOWA
NATIONAL WEATHER SERVICE SIOUX FALLS SD
700 AM CDT THU MAY 24 2018

NOTE: "FAIR" INDICATES FEW OR NO CLOUDS BELOW 12,000 FEET WITH NO
SIGNIFICANT WEATHER AND OR OBSTRUCTIONS TO VISIBILITY.


SDZ038>040-050-052>070-241300-
SOUTHEAST SOUTH DAKOTA

CITY           SKY/WX    TMP DP  RH WIND       PRES   REMARKS
BROOKINGS      CLOUDY    69  62  78 S15G23    29.98S
CHAMBERLAIN    MOCLDY    65  59  81 S10       29.88S
6HR MIN TEMP:  63; 6HR MAX TEMP:  75; 6HR PCP:  0.01;

HURON          CLOUDY    66  58  75 S8        29.87R
6HR MIN TEMP:  66; 6HR MAX TEMP:  71;

MADISON        FAIR      64  64 100 S12       29.99F
MITCHELL       CLOUDY    67  59  75 SE18      29.86F
6HR MIN TEMP:  66; 6HR MAX TEMP:  74; 6HR PCP: TRACE;

SIOUX FALLS    CLOUDY    67  62  84 S8        30.01F
6HR MIN TEMP:  66; 6HR MAX TEMP:  76; 6HR PCP:  0.22;

WINNER         FAIR      65  55  70 S15       29.91R
YANKTON        PTCLDY    66  62  87 SE6       30.00S
$$

MNZ071-072-080-081-089-090-097-098-241300-
SOUTHWEST MINNESOTA

CITY           SKY/WX    TMP DP  RH WIND       PRES   REMARKS
FAIRMONT       CLOUDY    68  64  87 S10       30.05S
JACKSON        CLOUDY    68  63  83 S9        30.04F
LUVERNE        CLOUDY    66  63  88 SW7       30.04R THUNDER
MARSHALL       CLOUDY    72  64  76 S16       29.97S
6HR MIN TEMP:  71; 6HR MAX TEMP:  74;

MONTEVIDEO     PTSUNNY   70  64  83 S8        29.96F
PIPESTONE      CLOUDY    68  64  88 SW14      30.03R
REDWOOD FALLS  CLOUDY    71  65  81 S9        29.99S
TRACY          CLOUDY    70  65  85 S16       30.01R
WINDOM         PTSUNNY   72  52  49 S9        30.02S
WORTHINGTON    CLOUDY    69  64  84 S12       30.04S
$$

IAZ001>003-012>014-020>022-031-032-NEZ013-014-SDZ071-241300-
NORTHWEST IOWA

CITY           SKY/WX    TMP DP  RH WIND       PRES   REMARKS
CHEROKEE       CLOUDY    68  66  92 S8        30.04S
DENISON        CLOUDY    70  64  83 S8        30.07R
ESTHERVILLE    MOSUNNY   66  64  93 S13       30.04F
ORANGE CITY    CLOUDY    70  64  83 S7        30.04R
SHELDON        CLOUDY    70  68  94 S10       30.02R
SIOUX CITY     CLOUDY    69  63  81 SE7       30.03R
6HR MIN TEMP:  65; 6HR MAX TEMP:  73;

SPENCER        MOSUNNY   69  64  84 S10       30.04F
6HR MIN TEMP:  67; 6HR MAX TEMP:  75;

STORM LAKE     CLOUDY    68  64  88 S10       30.05S
$$

ABBREVIATIONS USED IN REMARKS
   TC - TEMPERATURE IN CELSIUS
  WCI - WIND CHILL INDEX
   HX - HEAT INDEX
  VSB - VISIBILITY




USA.gov is the U.S. government's official web portal to all federal, state and local government web resources and services.